Time,TemperatureF,DewpointF,PressureIn,WindDirection,WindDirectionDegrees,WindSpeedMPH,WindSpeedGustMPH,Humidity,HourlyPrecipIn,Conditions,Clouds,dailyrainin,SoftwareType,DateUTC
2013-02-11 00:01:00,2.0,-2.0,-100.00,West,274,7.0,10.0,81,0.00,,,-99.99,,2013-02-11 07:01:00,
2013-02-11 00:11:00,2.0,-2.0,-100.00,West,275,7.0,13.0,81,0.00,,,-99.99,,2013-02-11 07:11:00,
2013-02-11 00:21:00,2.0,-3.0,-100.00,West,270,9.0,12.0,81,0.00,,,-99.99,,2013-02-11 07:21:00,
2013-02-11 00:31:00,2.0,-3.0,-100.00,West,264,9.0,16.0,79,0.00,,,-99.99,,2013-02-11 07:31:00,
2013-02-11 00:42:00,-999.0,-99.9,-100.00,West,278,9.0,14.0,-999,-99.99,,,-99.99,,2013-02-11 07:42:00,
2013-02-11 00:51:00,2.0,-3.0,-100.00,West,281,9.0,14.0,79,0.00,,,-99.99,,2013-02-11 07:51:00,
2013-02-11 01:01:00,2.0,-3.0,-100.00,West,274,8.0,13.0,80,0.00,,,-99.99,,2013-02-11 08:01:00,
2013-02-11 01:11:00,2.0,-3.0,-100.00,West,277,7.0,12.0,80,0.00,,,-99.99,,2013-02-11 08:11:00,
2013-02-11 01:21:00,1.0,-3.0,-100.00,West,272,7.0,10.0,80,0.00,,,-99.99,,2013-02-11 08:21:00,
2013-02-11 01:31:00,1.0,-3.0,-100.00,West,272,7.0,11.0,80,0.00,,,-99.99,,2013-02-11 08:31:00,
2013-02-11 01:42:00,2.0,-3.0,-100.00,West,271,9.0,12.0,79,0.00,,,-99.99,,2013-02-11 08:42:00,
2013-02-11 01:51:00,1.0,-3.0,-100.00,West,271,8.0,12.0,79,0.00,,,-99.99,,2013-02-11 08:51:00,
2013-02-11 02:01:00,1.0,-3.0,-100.00,West,265,11.0,14.0,79,0.00,,,-99.99,,2013-02-11 09:01:00,
2013-02-11 02:11:00,1.0,-4.0,-100.00,West,265,10.0,13.0,79,0.00,,,-99.99,,2013-02-11 09:11:00,
2013-02-11 02:21:00,1.0,-4.0,-100.00,West,265,10.0,14.0,79,0.00,,,-99.99,,2013-02-11 09:21:00,
2013-02-11 02:31:00,1.0,-4.0,-100.00,West,267,10.0,14.0,79,0.00,,,-99.99,,2013-02-11 09:31:00,
2013-02-11 02:41:00,1.0,-4.0,-100.00,West,268,11.0,14.0,78,0.00,,,-99.99,,2013-02-11 09:41:00,
2013-02-11 02:51:00,1.0,-4.0,-100.00,West,268,11.0,15.0,79,0.00,,,-99.99,,2013-02-11 09:51:00,
2013-02-11 03:01:00,1.0,-4.0,-100.00,West,270,10.0,14.0,79,0.00,,,-99.99,,2013-02-11 10:01:00,
2013-02-11 03:11:00,1.0,-4.0,-100.00,West,271,9.0,12.0,79,0.00,,,-99.99,,2013-02-11 10:11:00,
2013-02-11 03:21:00,1.0,-5.0,-100.00,West,267,10.0,14.0,78,0.00,,,-99.99,,2013-02-11 10:21:00,
2013-02-11 03:31:00,0.0,-5.0,-100.00,West,264,11.0,14.0,79,0.00,,,-99.99,,2013-02-11 10:31:00,
2013-02-11 03:41:00,0.0,-5.0,-100.00,West,265,9.0,13.0,79,0.00,,,-99.99,,2013-02-11 10:41:00,
2013-02-11 03:51:00,0.0,-5.0,-100.00,West,264,11.0,14.0,77,0.00,,,-99.99,,2013-02-11 10:51:00,
2013-02-11 04:01:00,1.0,-5.0,-100.00,West,263,12.0,17.0,76,0.00,,,-99.99,,2013-02-11 11:01:00,
2013-02-11 04:11:00,0.0,-5.0,-100.00,West,264,12.0,16.0,76,0.00,,,-99.99,,2013-02-11 11:11:00,
2013-02-11 04:21:00,0.0,-5.0,-100.00,West,267,12.0,17.0,77,0.00,,,-99.99,,2013-02-11 11:21:00,
2013-02-11 04:32:00,0.0,-6.0,-100.00,West,264,13.0,18.0,76,0.00,,,-99.99,,2013-02-11 11:32:00,
2013-02-11 04:42:00,-1.0,-6.0,-100.00,West,264,13.0,17.0,77,0.00,,,-99.99,,2013-02-11 11:42:00,
2013-02-11 04:52:00,0.0,-6.0,-100.00,West,268,12.0,17.0,78,0.00,,,-99.99,,2013-02-11 11:52:00,
2013-02-11 05:02:00,0.0,-6.0,-100.00,West,271,13.0,19.0,77,0.00,,,-99.99,,2013-02-11 12:02:00,
2013-02-11 05:12:00,-1.0,-6.0,-100.00,West,261,15.0,21.0,77,0.00,,,-99.99,,2013-02-11 12:12:00,
2013-02-11 05:22:00,-1.0,-6.0,-100.00,West,260,16.0,20.0,77,0.00,,,-99.99,,2013-02-11 12:22:00,
2013-02-11 05:31:00,-1.0,-7.0,-100.00,West,261,15.0,19.0,78,0.00,,,-99.99,,2013-02-11 12:31:00,
2013-02-11 05:42:00,-1.0,-7.0,-100.00,West,261,15.0,18.0,78,0.00,,,-99.99,,2013-02-11 12:42:00,
2013-02-11 05:52:00,-1.0,-6.0,-100.00,West,265,14.0,20.0,77,0.00,,,-99.99,,2013-02-11 12:52:00,
2013-02-11 06:01:00,-1.0,-6.0,-100.00,West,263,16.0,19.0,77,0.00,,,-99.99,,2013-02-11 13:01:00,
2013-02-11 06:11:00,-1.0,-6.0,-100.00,West,264,14.0,19.0,77,0.00,,,-99.99,,2013-02-11 13:11:00,
2013-02-11 06:21:00,-1.0,-7.0,-100.00,West,265,14.0,18.0,77,0.00,,,-99.99,,2013-02-11 13:21:00,
2013-02-11 06:32:00,-1.0,-6.0,-100.00,West,268,12.0,19.0,78,0.00,,,-99.99,,2013-02-11 13:32:00,
2013-02-11 06:41:00,-1.0,-6.0,-100.00,West,270,14.0,19.0,77,0.00,,,-99.99,,2013-02-11 13:41:00,
2013-02-11 06:51:00,-1.0,-6.0,-100.00,West,263,14.0,18.0,78,0.00,,,-99.99,,2013-02-11 13:51:00,
2013-02-11 07:01:00,0.0,-6.0,-100.00,WSW,258,16.0,21.0,76,0.00,,,-99.99,,2013-02-11 14:01:00,
2013-02-11 07:11:00,0.0,-6.0,-100.00,West,260,17.0,21.0,75,0.00,,,-99.99,,2013-02-11 14:11:00,
2013-02-11 07:21:00,0.0,-5.0,-100.00,West,264,16.0,21.0,76,0.00,,,-99.99,,2013-02-11 14:21:00,
2013-02-11 07:32:00,1.0,-5.0,-100.00,West,263,16.0,23.0,75,0.00,,,-99.99,,2013-02-11 14:32:00,
2013-02-11 07:41:00,0.0,-6.0,-100.00,West,263,17.0,22.0,75,0.00,,,-99.99,,2013-02-11 14:41:00,
2013-02-11 07:52:00,0.0,-5.0,-100.00,West,263,16.0,21.0,75,0.00,,,-99.99,,2013-02-11 14:52:00,
2013-02-11 08:01:00,1.0,-5.0,-100.00,West,263,15.0,19.0,75,0.00,,,-99.99,,2013-02-11 15:01:00,
2013-02-11 08:11:00,1.0,-5.0,-100.00,West,264,16.0,20.0,75,0.00,,,-99.99,,2013-02-11 15:11:00,
2013-02-11 08:21:00,0.0,-6.0,-100.00,West,261,15.0,20.0,75,0.00,,,-99.99,,2013-02-11 15:21:00,
2013-02-11 08:31:00,0.0,-6.0,-100.00,West,263,15.0,19.0,76,0.00,,,-99.99,,2013-02-11 15:31:00,
2013-02-11 08:41:00,0.0,-5.0,-100.00,West,263,16.0,20.0,76,0.00,,,-99.99,,2013-02-11 15:41:00,
2013-02-11 08:51:00,1.0,-5.0,-100.00,West,265,14.0,20.0,75,0.00,,,-99.99,,2013-02-11 15:51:00,
2013-02-11 09:02:00,-999.0,-99.9,-100.00,West,267,14.0,19.0,-999,-99.99,,,-99.99,,2013-02-11 16:02:00,
2013-02-11 09:11:00,3.0,-4.0,-100.00,West,265,16.0,21.0,74,0.00,,,-99.99,,2013-02-11 16:11:00,
2013-02-11 09:21:00,4.0,-3.0,-100.00,West,271,14.0,19.0,74,0.00,,,-99.99,,2013-02-11 16:21:00,
2013-02-11 09:31:00,4.0,-3.0,-100.00,West,268,15.0,19.0,75,0.00,,,-99.99,,2013-02-11 16:31:00,
2013-02-11 09:41:00,4.0,-2.0,-100.00,West,270,14.0,20.0,75,0.00,,,-99.99,,2013-02-11 16:41:00,
2013-02-11 09:51:00,5.0,-2.0,-100.00,West,267,17.0,23.0,74,0.00,,,-99.99,,2013-02-11 16:51:00,
2013-02-11 10:01:00,5.0,-1.0,-100.00,West,268,16.0,21.0,74,0.00,,,-99.99,,2013-02-11 17:01:00,
2013-02-11 10:11:00,6.0,-1.0,-100.00,West,267,17.0,24.0,72,0.00,,,-99.99,,2013-02-11 17:11:00,
2013-02-11 10:21:00,7.0,-1.0,-100.00,West,268,17.0,24.0,69,0.00,,,-99.99,,2013-02-11 17:21:00,
2013-02-11 10:31:00,7.0,-1.0,-100.00,West,260,21.0,29.0,69,0.00,,,-99.99,,2013-02-11 17:31:00,
2013-02-11 10:41:00,8.0,-1.0,-100.00,West,261,21.0,28.0,67,0.00,,,-99.99,,2013-02-11 17:41:00,
2013-02-11 10:52:00,9.0,0.0,-100.00,West,267,18.0,27.0,66,0.00,,,-99.99,,2013-02-11 17:52:00,
2013-02-11 11:01:00,9.0,0.0,-100.00,West,268,19.0,27.0,64,0.00,,,-99.99,,2013-02-11 18:01:00,
2013-02-11 11:11:00,10.0,0.0,-100.00,West,268,19.0,27.0,67,0.00,,,-99.99,,2013-02-11 18:11:00,
2013-02-11 11:21:00,11.0,0.0,-100.00,West,271,19.0,29.0,61,0.00,,,-99.99,,2013-02-11 18:21:00,
2013-02-11 11:31:00,12.0,1.0,-100.00,West,270,19.0,29.0,63,0.00,,,-99.99,,2013-02-11 18:31:00,
2013-02-11 11:41:00,12.0,1.0,-100.00,West,270,18.0,26.0,61,0.00,,,-99.99,,2013-02-11 18:41:00,
2013-02-11 11:52:00,13.0,1.0,-100.00,West,270,17.0,27.0,59,0.00,,,-99.99,,2013-02-11 18:52:00,
2013-02-11 12:01:00,13.0,2.0,-100.00,West,268,17.0,28.0,60,-99.99,,,-99.99,,2013-02-11 19:01:00,
2013-02-11 12:11:00,13.0,0.0,-100.00,WSW,258,23.0,31.0,56,0.00,,,-99.99,,2013-02-11 19:11:00,
2013-02-11 12:21:00,13.0,0.0,-100.00,WSW,256,22.0,29.0,55,0.00,,,-99.99,,2013-02-11 19:21:00,
2013-02-11 12:31:00,13.0,0.0,-100.00,WSW,257,22.0,30.0,55,0.00,,,-99.99,,2013-02-11 19:31:00,
2013-02-11 12:41:00,14.0,0.0,-100.00,WSW,257,24.0,35.0,53,0.00,,,-99.99,,2013-02-11 19:41:00,
2013-02-11 12:51:00,14.0,-1.0,-100.00,West,263,21.0,29.0,50,0.00,,,-99.99,,2013-02-11 19:51:00,
2013-02-11 13:01:00,15.0,0.0,-100.00,West,260,21.0,31.0,51,0.00,,,-99.99,,2013-02-11 20:01:00,
2013-02-11 13:11:00,15.0,-2.0,-100.00,WSW,256,21.0,30.0,47,0.00,,,-99.99,,2013-02-11 20:11:00,
2013-02-11 13:21:00,15.0,-3.0,-100.00,WSW,251,21.0,27.0,44,0.00,,,-99.99,,2013-02-11 20:21:00,
2013-02-11 13:31:00,16.0,-2.0,-100.00,WSW,256,21.0,28.0,45,0.00,,,-99.99,,2013-02-11 20:31:00,
2013-02-11 13:41:00,16.0,-3.0,-100.00,West,260,21.0,30.0,42,0.00,,,-99.99,,2013-02-11 20:41:00,
2013-02-11 13:52:00,16.0,-5.0,-100.00,WSW,258,22.0,29.0,38,0.00,,,-99.99,,2013-02-11 20:52:00,
2013-02-11 14:01:00,18.0,-2.0,-100.00,West,264,19.0,30.0,40,0.00,,,-99.99,,2013-02-11 21:01:00,
2013-02-11 14:11:00,16.0,-4.0,-100.00,WSW,248,22.0,28.0,41,-99.99,,,-99.99,,2013-02-11 21:11:00,
2013-02-11 14:21:00,18.0,-3.0,-100.00,West,263,18.0,27.0,39,0.00,,,-99.99,,2013-02-11 21:21:00,
2013-02-11 14:31:00,17.0,-4.0,-100.00,WSW,257,21.0,29.0,37,0.00,,,-99.99,,2013-02-11 21:31:00,
2013-02-11 14:41:00,17.0,-5.0,-100.00,WSW,254,22.0,29.0,37,0.00,,,-99.99,,2013-02-11 21:41:00,
2013-02-11 14:51:00,18.0,-3.0,-100.00,WSW,254,21.0,30.0,40,0.00,,,-99.99,,2013-02-11 21:51:00,
2013-02-11 15:01:00,18.0,-3.0,-100.00,West,261,21.0,27.0,38,0.00,,,-99.99,,2013-02-11 22:01:00,
2013-02-11 15:11:00,17.0,-5.0,-100.00,WSW,254,22.0,31.0,37,0.00,,,-99.99,,2013-02-11 22:11:00,
2013-02-11 15:21:00,18.0,-3.0,-100.00,WSW,254,22.0,29.0,39,0.00,,,-99.99,,2013-02-11 22:21:00,
2013-02-11 15:31:00,17.0,-2.0,-100.00,WSW,251,23.0,30.0,42,0.00,,,-99.99,,2013-02-11 22:31:00,
2013-02-11 15:41:00,17.0,-4.0,-100.00,WSW,251,22.0,29.0,40,0.00,,,-99.99,,2013-02-11 22:41:00,
2013-02-11 15:51:00,16.0,-3.0,-100.00,WSW,256,20.0,26.0,41,0.00,,,-99.99,,2013-02-11 22:51:00,
2013-02-11 16:01:00,16.0,-4.0,-100.00,WSW,251,19.0,26.0,40,0.00,,,-99.99,,2013-02-11 23:01:00,
2013-02-11 16:11:00,17.0,-3.0,-100.00,WSW,256,17.0,22.0,41,0.00,,,-99.99,,2013-02-11 23:11:00,
2013-02-11 16:21:00,17.0,-2.0,-100.00,WSW,256,19.0,24.0,43,0.00,,,-99.99,,2013-02-11 23:21:00,
2013-02-11 16:31:00,17.0,-2.0,-100.00,WSW,254,19.0,24.0,42,0.00,,,-99.99,,2013-02-11 23:31:00,
2013-02-11 16:41:00,17.0,-2.0,-100.00,WSW,254,19.0,26.0,42,0.00,,,-99.99,,2013-02-11 23:41:00,
2013-02-11 16:51:00,17.0,-1.0,-100.00,WSW,254,20.0,26.0,46,0.00,,,-99.99,,2013-02-11 23:51:00,
2013-02-11 17:01:00,16.0,0.0,-100.00,West,261,15.0,22.0,48,0.00,,,-99.99,,2013-02-12 00:01:00,
2013-02-11 17:11:00,16.0,0.0,-100.00,West,261,15.0,21.0,48,0.00,,,-99.99,,2013-02-12 00:11:00,
2013-02-11 17:21:00,16.0,0.0,-100.00,West,260,17.0,26.0,49,0.00,,,-99.99,,2013-02-12 00:21:00,
2013-02-11 17:31:00,16.0,0.0,-100.00,West,260,19.0,31.0,49,0.00,,,-99.99,,2013-02-12 00:31:00,
2013-02-11 17:41:00,17.0,1.0,-100.00,WSW,256,19.0,25.0,50,0.00,,,-99.99,,2013-02-12 00:41:00,
2013-02-11 17:51:00,16.0,2.0,-100.00,WSW,258,20.0,29.0,54,0.00,,,-99.99,,2013-02-12 00:51:00,
2013-02-11 18:01:00,15.0,2.0,-100.00,West,270,16.0,24.0,56,0.00,,,-99.99,,2013-02-12 01:01:00,
2013-02-11 18:11:00,14.0,2.0,-100.00,West,270,13.0,21.0,59,0.00,,,-99.99,,2013-02-12 01:11:00,
2013-02-11 18:21:00,14.0,3.0,-100.00,West,271,14.0,22.0,60,0.00,,,-99.99,,2013-02-12 01:21:00,
2013-02-11 18:31:00,14.0,3.0,-100.00,West,267,16.0,24.0,61,0.00,,,-99.99,,2013-02-12 01:31:00,
2013-02-11 18:41:00,13.0,3.0,-100.00,West,265,17.0,22.0,63,0.00,,,-99.99,,2013-02-12 01:41:00,
2013-02-11 18:51:00,13.0,4.0,-100.00,West,267,16.0,28.0,64,0.00,,,-99.99,,2013-02-12 01:51:00,
2013-02-11 19:01:00,13.0,3.0,-100.00,West,265,17.0,22.0,64,0.00,,,-99.99,,2013-02-12 02:01:00,
2013-02-11 19:11:00,13.0,4.0,-100.00,West,267,17.0,23.0,64,0.00,,,-99.99,,2013-02-12 02:11:00,
2013-02-11 19:21:00,13.0,4.0,-100.00,West,265,18.0,24.0,65,0.00,,,-99.99,,2013-02-12 02:21:00,
2013-02-11 19:31:00,13.0,4.0,-100.00,West,268,17.0,24.0,64,0.00,,,-99.99,,2013-02-12 02:31:00,
2013-02-11 19:41:00,13.0,3.0,-100.00,West,267,18.0,24.0,64,0.00,,,-99.99,,2013-02-12 02:41:00,
2013-02-11 19:52:00,13.0,4.0,-100.00,West,267,15.0,24.0,66,0.00,,,-99.99,,2013-02-12 02:52:00,
2013-02-11 20:01:00,13.0,4.0,-100.00,West,271,16.0,22.0,64,0.00,,,-99.99,,2013-02-12 03:01:00,
2013-02-11 20:11:00,12.0,3.0,-100.00,West,268,15.0,21.0,66,0.00,,,-99.99,,2013-02-12 03:11:00,
2013-02-11 20:21:00,13.0,3.0,-100.00,West,272,14.0,18.0,66,0.00,,,-99.99,,2013-02-12 03:21:00,
2013-02-11 20:31:00,12.0,3.0,-100.00,West,274,13.0,20.0,67,0.00,,,-99.99,,2013-02-12 03:31:00,
2013-02-11 20:41:00,12.0,3.0,-100.00,West,270,13.0,19.0,68,0.00,,,-99.99,,2013-02-12 03:41:00,
2013-02-11 20:51:00,11.0,3.0,-100.00,West,267,13.0,20.0,69,0.00,,,-99.99,,2013-02-12 03:51:00,
2013-02-11 21:01:00,12.0,3.0,-100.00,West,270,13.0,20.0,69,0.00,,,-99.99,,2013-02-12 04:01:00,
2013-02-11 21:11:00,11.0,3.0,-100.00,West,264,17.0,22.0,70,0.00,,,-99.99,,2013-02-12 04:11:00,
2013-02-11 21:21:00,11.0,4.0,-100.00,West,261,18.0,22.0,70,0.00,,,-99.99,,2013-02-12 04:21:00,
2013-02-11 21:31:00,11.0,4.0,-100.00,West,261,17.0,22.0,71,0.00,,,-99.99,,2013-02-12 04:31:00,
2013-02-11 21:41:00,11.0,4.0,-100.00,West,261,18.0,25.0,71,0.00,,,-99.99,,2013-02-12 04:41:00,
2013-02-11 21:51:00,12.0,4.0,-100.00,WSW,258,21.0,30.0,70,0.00,,,-99.99,,2013-02-12 04:51:00,
2013-02-11 22:01:00,12.0,4.0,-100.00,WSW,256,21.0,27.0,70,0.00,,,-99.99,,2013-02-12 05:01:00,
2013-02-11 22:11:00,11.0,4.0,-100.00,West,260,19.0,26.0,71,0.00,,,-99.99,,2013-02-12 05:11:00,
2013-02-11 22:21:00,11.0,4.0,-100.00,West,265,17.0,21.0,73,0.00,,,-99.99,,2013-02-12 05:21:00,
2013-02-11 22:31:00,11.0,4.0,-100.00,West,263,19.0,24.0,74,0.00,,,-99.99,,2013-02-12 05:31:00,
2013-02-11 22:41:00,11.0,4.0,-100.00,West,264,19.0,24.0,74,0.00,,,-99.99,,2013-02-12 05:41:00,
2013-02-11 22:52:00,10.0,4.0,-100.00,West,264,20.0,26.0,75,0.00,,,-99.99,,2013-02-12 05:52:00,
2013-02-11 23:01:00,11.0,4.0,-100.00,West,263,20.0,26.0,73,0.00,,,-99.99,,2013-02-12 06:01:00,
2013-02-11 23:11:00,10.0,4.0,-100.00,West,264,19.0,26.0,74,0.00,,,-99.99,,2013-02-12 06:11:00,
2013-02-11 23:21:00,10.0,4.0,-100.00,West,263,18.0,24.0,75,0.00,,,-99.99,,2013-02-12 06:21:00,
2013-02-11 23:31:00,11.0,4.0,-100.00,West,260,20.0,27.0,74,0.00,,,-99.99,,2013-02-12 06:31:00,
2013-02-11 23:42:00,10.0,4.0,-100.00,West,261,19.0,26.0,74,0.00,,,-99.99,,2013-02-12 06:42:00,
2013-02-11 23:51:00,10.0,4.0,-100.00,West,265,16.0,22.0,75,0.00,,,-99.99,,2013-02-12 06:51:00,